Weather History for Spartanburg, SC

Change the Weather History Date:

Wednesday, April 30, 2014

  Actual Average (KGSP) Record (KGSP)
Temperature  
Mean Temperature 68 °F 64 °F  
Max Temperature 77 °F 76 °F 91 °F (1987)
Min Temperature 59 °F 52 °F 39 °F (1980)
Degree Days  
Heating Degree Days 0 3  
Month to date heating degree days 173  
Since 1 July heating degree days 3006  
Cooling Degree Days 3 2  
Month to date cooling degree days 40  
Year to date cooling degree days 48  
Growing Degree Days 18 (Base 50)    
Moisture  
Dew Point 62 °F    
Average Humidity 84    
Maximum Humidity 100    
Minimum Humidity 57    
Precipitation  
Precipitation 0.03 in 0.11 in 1.86 in (1953)
Month to date precipitation 3.36  
Year to date precipitation 15.67  
Snow  
Snow 0.00 in 0.00 in 0.00 in ()
Month to date snowfall T  
Since 1 July snowfall 4.7  
Snow Depth -    
Sea Level Pressure  
Sea Level Pressure 29.92 in    
Wind  
Wind Speed 5 mph (South)    
Max Wind Speed 14 mph    
Max Gust Speed 23 mph    
Visibility 6 miles    
Events Fog , Rain    
T = Trace of Precipitation, MM = Missing Value Source: NWS Daily Summary

Daily Weather History Graph

Daily Weather History Graph

Search for Another Location

Airport:

Trip Planner

Search our weather history database for the weather conditions in past years. The results will help you decide how hot, cold, wet, or windy it might be!

Date:

Astronomy

Apr. 30, 2014 Rise Set
Actual Time 6:38 AM EDT 8:12 PM EDT
Civil Twilight 6:11 AM EDT 8:39 PM EDT
Nautical Twilight 5:38 AM EDT 9:11 PM EDT
Astronomical Twilight 5:04 AM EDT 9:46 PM EDT
Moon 7:39 AM EDT (4/30) 9:48 PM EDT (4/30)
Length of Visible Light 14h 28m
Length of Day
13h 34m
New Moon, 2% of the Moon is Illuminated
Apr 30
New Moon
May 6
First Quarter
May 14
Full
May 21
Last Quarter
May 28
New

Hourly Weather History & Observations

Time (EDT) Temp. Dew Point Humidity Pressure Visibility Wind Dir Wind Speed Gust Speed Precip Events Conditions
12:15 AM 60.8 °F 60.8 °F 100% 30.00 in 3.0 mi NNE 6.9 mph - N/A   Mostly Cloudy
12:35 AM 60.8 °F 60.8 °F 100% 30.00 in 2.5 mi NE 5.8 mph - N/A   Overcast
12:55 AM 60.8 °F 60.8 °F 100% 30.00 in 2.5 mi NE 4.6 mph - N/A   Overcast
1:15 AM 60.8 °F 60.8 °F 100% 30.01 in 2.5 mi NE 5.8 mph - N/A   Overcast
1:35 AM 60.8 °F 60.8 °F 100% 30.00 in 2.5 mi NE 5.8 mph - N/A   Overcast
1:55 AM 59.0 °F 59.0 °F 100% 29.99 in 2.0 mi NE 5.8 mph - N/A   Overcast
2:15 AM 59.0 °F 59.0 °F 100% 29.98 in 2.5 mi NNE 6.9 mph - N/A   Overcast
2:35 AM 59.0 °F 59.0 °F 100% 29.98 in 2.5 mi NNE 3.5 mph - N/A   Overcast
2:55 AM 59.0 °F 59.0 °F 100% 29.97 in 2.5 mi NNE 5.8 mph - N/A   Overcast
3:15 AM 59.0 °F 59.0 °F 100% 29.96 in 2.0 mi North 4.6 mph - N/A   Overcast
3:35 AM 59.0 °F 59.0 °F 100% 29.96 in 1.5 mi North 4.6 mph - N/A Rain Light Rain
3:55 AM 59.0 °F 59.0 °F 100% 29.95 in 2.5 mi NNE 4.6 mph - 0.03 in Rain Rain
4:15 AM 59.0 °F 59.0 °F 100% 29.92 in 2.5 mi ENE 4.6 mph - N/A   Overcast
4:35 AM 59.0 °F 59.0 °F 100% 29.90 in 3.0 mi ENE 4.6 mph - N/A   Overcast
4:55 AM 59.0 °F 59.0 °F 100% 29.94 in 3.0 mi North 3.5 mph - N/A   Overcast
5:15 AM 59.0 °F 59.0 °F 100% 29.94 in 4.0 mi NNE 4.6 mph - N/A   Overcast
5:35 AM 59.0 °F 59.0 °F 100% 29.94 in 3.0 mi NE 5.8 mph - N/A   Overcast
5:55 AM 59.0 °F 59.0 °F 100% 29.93 in 2.0 mi NE 5.8 mph - N/A   Overcast
6:15 AM 59.0 °F 59.0 °F 100% 29.94 in 1.8 mi NNE 5.8 mph - N/A   Overcast
6:35 AM 59.0 °F 59.0 °F 100% 29.94 in 1.5 mi NNE 4.6 mph - N/A   Overcast
7:15 AM 59.0 °F 59.0 °F 100% 29.94 in 0.8 mi NNE 6.9 mph - N/A   Overcast
7:35 AM 59.0 °F 59.0 °F 100% 29.92 in 0.5 mi NE 6.9 mph - N/A Fog Fog
7:55 AM 59.0 °F 59.0 °F 100% 29.94 in 0.5 mi NE 3.5 mph - N/A Fog Fog
8:15 AM 59.0 °F 59.0 °F 100% 29.91 in 0.5 mi NNE 4.6 mph - N/A Fog Fog
8:35 AM 60.8 °F 60.8 °F 100% 29.93 in 0.8 mi NW 9.2 mph - N/A   Overcast
8:55 AM 60.8 °F 60.8 °F 100% 29.96 in 2.0 mi North 3.5 mph - N/A   Mostly Cloudy
9:15 AM 60.8 °F 60.8 °F 100% 29.94 in 2.0 mi NE 4.6 mph - N/A   Clear
9:35 AM 62.6 °F 62.6 °F 100% 29.94 in 2.5 mi ESE 4.6 mph - N/A   Clear
9:55 AM 62.6 °F 62.6 °F 100% 29.93 in 2.5 mi Calm Calm - N/A   Clear
10:15 AM 64.4 °F 64.4 °F 100% 29.94 in 4.0 mi WNW 3.5 mph - N/A   Clear
10:35 AM 64.4 °F 64.4 °F 100% 29.94 in 5.0 mi NNW 4.6 mph - N/A   Clear
11:15 AM 66.2 °F 66.2 °F 100% 29.94 in 5.0 mi NNE 3.5 mph - N/A   Clear
11:35 AM 68.0 °F 68.0 °F 100% 29.90 in 7.0 mi East 5.8 mph - N/A   Clear
11:55 AM 68.0 °F 66.2 °F 94% 29.90 in 7.0 mi NE 3.5 mph - N/A   Clear
12:15 PM 69.8 °F 64.4 °F 83% 29.91 in 7.0 mi Calm Calm - N/A   Clear
12:35 PM 69.8 °F 64.4 °F 83% 29.93 in 10.0 mi Calm Calm - N/A   Clear
12:55 PM 71.6 °F 64.4 °F 78% 29.92 in 10.0 mi WSW 3.5 mph - N/A   Clear
1:15 PM 73.4 °F 64.4 °F 73% 29.91 in 10.0 mi South 4.6 mph - N/A   Clear
1:35 PM 75.2 °F 64.4 °F 69% 29.90 in 10.0 mi SW 3.5 mph - N/A   Clear
1:55 PM 75.2 °F 64.4 °F 69% 29.89 in 10.0 mi SW 10.4 mph 16.1 mph N/A   Scattered Clouds
2:15 PM 75.2 °F 64.4 °F 69% 29.90 in 10.0 mi SW 8.1 mph - N/A   Mostly Cloudy
2:35 PM 77.0 °F 64.4 °F 65% 29.90 in 10.0 mi SSW 6.9 mph - N/A   Scattered Clouds
2:55 PM 77.0 °F 62.6 °F 61% 29.89 in 10.0 mi South 5.8 mph 18.4 mph N/A   Clear
3:15 PM 77.0 °F 60.8 °F 57% 29.89 in 10.0 mi SW 8.1 mph - N/A   Clear
3:35 PM 77.0 °F 62.6 °F 61% 29.89 in 10.0 mi SW 9.2 mph - N/A   Scattered Clouds
3:55 PM 77.0 °F 60.8 °F 57% 29.89 in 10.0 mi SW 13.8 mph 23.0 mph N/A   Scattered Clouds
4:15 PM 75.2 °F 60.8 °F 61% 29.89 in 10.0 mi SW 9.2 mph 16.1 mph N/A   Scattered Clouds
4:35 PM 75.2 °F 60.8 °F 61% 29.89 in 10.0 mi SSW 8.1 mph - N/A   Clear
4:55 PM 75.2 °F 60.8 °F 61% 29.90 in 10.0 mi SW 9.2 mph 20.7 mph N/A   Scattered Clouds
5:15 PM 75.2 °F 60.8 °F 61% 29.89 in 10.0 mi SW 8.1 mph 19.6 mph N/A   Overcast
5:35 PM 75.2 °F 60.8 °F 61% 29.89 in 10.0 mi SW 12.7 mph 23.0 mph N/A   Mostly Cloudy
5:55 PM 73.4 °F 60.8 °F 65% 29.89 in 10.0 mi SW 9.2 mph 18.4 mph N/A   Mostly Cloudy
6:15 PM 73.4 °F 60.8 °F 65% 29.89 in 10.0 mi SW 8.1 mph 17.3 mph N/A   Scattered Clouds
6:35 PM 75.2 °F 62.6 °F 65% 29.88 in 10.0 mi SW 6.9 mph - N/A   Mostly Cloudy
6:55 PM 73.4 °F 60.8 °F 65% 29.88 in 10.0 mi SW 5.8 mph - N/A   Overcast
7:15 PM 73.4 °F 62.6 °F 69% 29.88 in 10.0 mi SSW 3.5 mph - N/A   Overcast
7:35 PM 73.4 °F 62.6 °F 69% 29.88 in 10.0 mi SSW 5.8 mph - N/A   Overcast
7:55 PM 73.4 °F 60.8 °F 65% 29.89 in 10.0 mi South 5.8 mph - N/A   Overcast
8:15 PM 71.6 °F 62.6 °F 73% 29.90 in 10.0 mi South 5.8 mph - N/A   Overcast
8:35 PM 71.6 °F 62.6 °F 73% 29.90 in 10.0 mi SSW 3.5 mph - N/A   Overcast
8:55 PM 71.6 °F 62.6 °F 73% 29.90 in 10.0 mi SSW 3.5 mph - N/A   Mostly Cloudy
9:15 PM 71.6 °F 62.6 °F 73% 29.90 in 10.0 mi South 3.5 mph - N/A   Scattered Clouds
9:35 PM 71.6 °F 62.6 °F 73% 29.90 in 10.0 mi Calm Calm - N/A   Scattered Clouds
9:55 PM 71.6 °F 62.6 °F 73% 29.90 in 10.0 mi Calm Calm - N/A   Clear
10:15 PM 69.8 °F 62.6 °F 78% 29.91 in 10.0 mi South 3.5 mph - N/A   Clear
10:35 PM 69.8 °F 62.6 °F 78% 29.91 in 10.0 mi SSE 4.6 mph - N/A   Clear
10:55 PM 69.8 °F 62.6 °F 78% 29.92 in 10.0 mi South 4.6 mph - N/A   Scattered Clouds
11:15 PM 69.8 °F 62.6 °F 78% 29.91 in 10.0 mi SSW 5.8 mph - N/A   Scattered Clouds
11:35 PM 69.8 °F 62.6 °F 78% 29.90 in 10.0 mi South 3.5 mph - N/A   Scattered Clouds
11:55 PM 69.8 °F 62.6 °F 78% 29.90 in 10.0 mi SSW 3.5 mph - N/A   Clear